Location: Ay?beleni
(36.6500°N, 30.3000°E)
Time: 04:27:50
(UTC+00:00)

Cosmos 2227 Rocket - Pass Details

Date: 16 October 2021
Orbit: 839 x 845 km, 71.0° (Epoch: 08 December)

Event Time Altitude Azimuth Distance (km) Brightness Sun altitude
Rises 16:02:20 0° 337° (NNW) 3,409 5.6 -9.0°
Reaches altitude 10° 16:04:48 10° 337° (NNW) 2,470 4.9 -9.5°
Maximum altitude 16:10:28 86° 252° (WSW) 850 2.3 -10.7°
Drops below altitude 10° 16:16:07 10° 162° (SSE) 2,452 4.5 -11.8°
Sets 16:18:32 0° 161° (SSE) 3,382 5.2 -12.3°
